DW2659 Weather Reports


time (UTC)temp
C
wind
direction
speed
KPH
gust
KPH
rain 1hr
cm
rain 24hr
cm
rain mn
cm
humidity
%
barometer
mb
20260502224403 17 5 1.6 3.2 0.00 0.00 0.00 35 1013.9
20260502223903 17 5 1.6 3.2 0.00 0.00 0.00 32 1013.9
20260502223404 17 18 1.6 4.8 0.00 0.00 0.00 32 1013.9
20260502221904 18 33 3.2 4.8 0.00 0.00 0.00 32 1013.8
20260502221403 18 39 3.2 4.8 0.00 0.00 0.00 32 1013.6
20260502220903 18 27 1.6 4.8 0.00 0.00 0.00 30 1013.6
20260502220404 18 5 1.6 8.0 0.00 0.00 0.00 29 1013.6
20260502215902 18 1 4.8 11.3 0.00 0.00 0.00 28 1013.4
20260502215403 18 23 1.6 8.0 0.00 0.00 0.00 31 1013.4
20260502214904 18 1 3.2 12.9 0.00 0.00 0.00 33 1013.4
20260502214403 18 17 3.2 8.0 0.00 0.00 0.00 30 1013.4
20260502213902 18 26 3.2 8.0 0.00 0.00 0.00 32 1013.4
20260502213405 18 61 1.6 4.8 0.00 0.00 0.00 32 1013.4
20260502212902 18 60 1.6 4.8 0.00 0.00 0.00 32 1013.3
20260502212403 18 32 1.6 3.2 0.00 0.00 0.00 34 1013.3
20260502211904 18 31 3.2 4.8 0.00 0.00 0.00 33 1013.3
20260502211403 18 30 3.2 8.0 0.00 0.00 0.00 33 1013.2
20260502210903 18 58 3.2 4.8 0.00 0.00 0.00 33 1013.2
20260502205903 18 31 3.2 8.0 0.00 0.00 0.00 30 1013.3
20260502205403 19 35 3.2 8.0 0.00 0.00 0.00 29 1013.3
20260502204904 19 39 4.8 9.7 0.00 0.00 0.00 32 1013.3
20260502204402 19 31 3.2 4.8 0.00 0.00 0.00 35 1013.2
20260502203903 18 6 1.6 4.8 0.00 0.00 0.00 32 1013.2
20260502203404 18 34 1.6 8.0 0.00 0.00 0.00 31 1013.3
20260502202903 19 25 3.2 9.7 0.00 0.00 0.00 31 1013.5
20260502202403 19 30 4.8 11.3 0.00 0.00 0.00 30 1013.5
20260502201904 19 20 4.8 9.7 0.00 0.00 0.00 29 1013.5
20260502201403 19 50 4.8 8.0 0.00 0.00 0.00 32 1013.4
20260502200404 19 31 4.8 9.7 0.00 0.00 0.00 31 1013.4
20260502195903 19 342 4.8 8.0 0.00 0.00 0.00 31 1013.8
20260502194905 19 32 3.2 4.8 0.00 0.00 0.00 35 1013.8
20260502194404 18 40 6.4 12.9 0.00 0.00 0.00 30 1013.8
20260502193903 18 14 3.2 9.7 0.00 0.00 0.00 35 1013.8
20260502193404 19 51 4.8 8.0 0.00 0.00 0.00 36 1013.8
20260502192903 19 15 3.2 4.8 0.00 0.00 0.00 36 1013.9
20260502192403 18 28 3.2 4.8 0.00 0.00 0.00 36 1013.9
20260502191904 19 29 3.2 9.7 0.00 0.00 0.00 33 1013.8
20260502190903 19 26 4.8 11.3 0.00 0.00 0.00 35 1013.8
20260502190405 18 26 3.2 4.8 0.00 0.00 0.00 33 1013.8
20260502185903 18 296 3.2 8.0 0.00 0.00 0.00 33 1014.1
20260502185404 18 21 3.2 8.0 0.00 0.00 0.00 33 1014.1
20260502184904 18 18 3.2 4.8 0.00 0.00 0.00 32 1014.1
20260502184404 18 9 3.2 8.0 0.00 0.00 0.00 30 1014.1
20260502183903 18 24 6.4 12.9 0.00 0.00 0.00 32 1014.1
20260502183404 18 19 3.2 8.0 0.00 0.00 0.00 34 1014.1
20260502182903 18 29 3.2 8.0 0.00 0.00 0.00 32 1014.1
20260502181904 18 24 3.2 9.7 0.00 0.00 0.00 30 1014.1
20260502181403 19 18 4.8 8.0 0.00 0.00 0.00 32 1014.1
20260502180903 18 60 1.6 4.8 0.00 0.00 0.00 35 1014.1
20260502180405 18 25 4.8 9.7 0.00 0.00 0.00 34 1014.1
20260502170404 17 9 3.2 8.0 0.00 0.00 0.00 39 1014.3
20260502163903 17 21 4.8 11.3 0.00 0.00 0.00 38 1014.7
20260502163404 17 19 3.2 8.0 0.00 0.00 0.00 42 1014.7
20260502162903 16 15 1.6 4.8 0.00 0.00 0.00 41 1014.7
20260502161904 16 19 3.2 8.0 0.00 0.00 0.00 40 1014.7
20260502161403 16 0 3.2 9.7 0.00 0.00 0.00 44 1014.8
20260502160904 16 26 3.2 8.0 0.00 0.00 0.00 43 1014.8
20260502160405 16 19 3.2 8.0 0.00 0.00 0.00 42 1014.8
20260502151905 15 0 1.6 4.8 0.00 0.00 0.00 47 1014.4
20260502130404 12 353 1.6 4.8 0.00 0.00 0.00 57 1013.7
20260502123404 12 40 3.2 4.8 0.00 0.00 0.00 58 1013.5
20260502122903 12 34 3.2 4.8 0.00 0.00 0.00 58 1013.5
20260502122405 11 23 3.2 8.0 0.00 0.00 0.00 58 1013.5
20260502121904 11 35 1.6 4.8 0.00 0.00 0.00 61 1013.5
20260502120904 11 34 1.6 3.2 0.00 0.00 0.00 60 1013.4
20260502115903 11 27 1.6 4.8 0.00 0.00 0.00 60 1013.4
20260502115404 11 5 1.6 3.2 0.00 0.00 0.00 59 1013.4
20260502114904 11 17 1.6 4.8 0.00 0.00 0.00 60 1013.4
20260502114403 11 350 1.6 4.8 0.00 0.00 0.00 58 1013.6
20260502113905 11 26 1.6 3.2 0.00 0.00 0.00 58 1013.6
20260502113404 11 26 1.6 4.8 0.00 0.00 0.00 58 1013.6
20260502112904 11 12 1.6 3.2 0.00 0.00 0.00 58 1013.4
20260502112405 11 22 1.6 3.2 0.00 0.00 0.00 58 1013.4
20260502111403 11 355 3.2 4.8 0.00 0.00 0.00 57 1013.4
20260502110905 11 37 1.6 4.8 0.00 0.00 0.00 58 1013.4
20260502110404 11 34 1.6 4.8 0.00 0.00 0.00 57 1013.4
20260502105906 11 44 1.6 4.8 0.00 0.00 0.00 58 1012.8
20260502104904 11 43 1.6 4.8 0.00 0.00 0.00 58 1012.8
20260502104404 11 27 1.6 4.8 0.00 0.00 0.00 58 1012.8
20260502103904 11 27 1.6 4.8 0.00 0.00 0.00 57 1012.7
20260502103403 11 347 0.0 3.2 0.00 0.00 0.00 58 1012.8
20260502102903 11 340 1.6 4.8 0.00 0.00 0.00 57 1012.8
20260502102405 11 5 1.6 4.8 0.00 0.00 0.00 56 1012.8
20260502101904 11 30 1.6 4.8 0.00 0.00 0.00 56 1012.8
20260502101404 11 10 1.6 3.2 0.00 0.00 0.00 56 1012.8
20260502100905 11 5 0.0 3.2 0.00 0.00 0.00 55 1013.0
20260502100404 11 5 1.6 3.2 0.00 0.00 0.00 55 1013.0
20260502091403 12 11 1.6 4.8 0.00 0.00 0.00 54 1012.7
20260502090405 12 42 1.6 4.8 0.00 0.00 0.00 53 1012.7
20260502071404 13 11 3.2 4.8 0.00 0.00 0.00 48 1013.7
20260502070904 13 343 3.2 4.8 0.00 0.00 0.00 48 1013.7
20260502070405 13 30 1.6 4.8 0.00 0.00 0.00 48 1013.7
20260502065906 13 30 1.6 4.8 0.00 0.00 0.00 49 1013.7
20260502064905 13 9 0.0 3.2 0.00 0.00 0.00 48 1013.7
20260502063904 13 23 1.6 9.7 0.00 0.00 0.00 49 1013.7
20260502063405 13 10 1.6 3.2 0.00 0.00 0.00 50 1013.8
20260502062903 13 27 1.6 3.2 0.00 0.00 0.00 50 1014.0
20260502061905 13 355 1.6 3.2 0.00 0.00 0.00 49 1014.0
20260502061404 13 7 1.6 3.2 0.00 0.00 0.00 50 1014.0
20260502060904 13 355 0.0 4.8 0.00 0.00 0.00 53 1014.0
20260502060405 13 348 1.6 4.8 0.00 0.00 0.00 52 1014.0
20260502055904 13 357 1.6 4.8 0.00 0.00 0.00 53 1013.9
20260502055404 13 28 1.6 4.8 0.00 0.00 0.00 54 1014.0
20260502054404 13 5 0.0 0.0 0.00 0.00 0.00 55 1013.5
20260502053904 13 5 0.0 0.0 0.00 0.00 0.00 55 1013.5
20260502053405 13 350 0.0 0.0 0.00 0.00 0.00 55 1013.5
20260502052904 13 20 1.6 3.2 0.00 0.00 0.00 57 1013.5
20260502051905 13 348 1.6 3.2 0.00 0.00 0.00 57 1013.5
20260502051404 14 46 1.6 3.2 0.00 0.00 0.00 57 1013.6
20260502050904 14 96 1.6 8.0 0.00 0.00 0.00 56 1013.6
20260502050405 14 11 1.6 4.8 0.00 0.00 0.00 55 1013.6
20260502045904 14 5 1.6 3.2 0.00 0.00 0.00 56 1013.6
20260502045404 14 338 1.6 4.8 0.00 0.00 0.00 56 1013.6
20260502044905 14 15 1.6 1.6 0.00 0.00 0.00 57 1013.6
20260502044404 14 15 1.6 4.8 0.00 0.00 0.00 58 1013.6
20260502043904 14 346 0.0 3.2 0.00 0.00 0.00 59 1013.6
20260502043406 14 346 0.0 3.2 0.00 0.00 0.00 60 1013.6
20260502042404 14 355 1.6 3.2 0.00 0.00 0.00 61 1013.7
20260502041905 14 355 1.6 4.8 0.00 0.00 0.00 61 1013.7
20260502040904 14 29 1.6 3.2 0.00 0.00 0.00 63 1014.0
20260502035903 13 58 0.0 3.2 0.00 0.00 0.00 66 1013.8
20260502035404 13 58 0.0 3.2 0.00 0.00 0.00 66 1013.8
20260502034906 13 58 0.0 3.2 0.00 0.00 0.00 68 1013.8
20260502034404 13 58 1.6 3.2 0.00 0.00 0.00 68 1013.8
20260502033904 13 86 0.0 1.6 0.00 0.00 0.00 73 1013.8
20260502032404 13 14 0.0 0.0 0.00 0.00 0.00 72 1013.8
20260502031905 13 14 0.0 0.0 0.00 0.00 0.00 72 1013.8
20260502030904 13 14 0.0 0.0 0.00 0.00 0.00 74 1013.6
20260502025904 13 3 0.0 3.2 0.00 0.00 0.00 75 1013.4
20260502025404 13 23 1.6 3.2 0.00 0.00 0.00 75 1013.4
20260502024903 13 267 1.6 4.8 0.00 0.00 0.00 75 1013.4
20260502024403 13 248 0.0 1.6 0.00 0.00 0.00 74 1013.4
20260502023903 13 248 0.0 1.6 0.00 0.00 0.00 75 1013.4
20260502023404 13 248 0.0 1.6 0.00 0.00 0.00 75 1013.4
20260502022402 13 248 0.0 1.6 0.00 0.00 0.00 76 1013.3
20260502021903 13 248 0.0 0.0 0.00 0.00 0.00 75 1013.3
20260502020903 13 248 0.0 1.6 0.00 0.00 0.00 75 1013.3
20260502020403 13 248 0.0 0.0 0.00 0.00 0.00 74 1013.3
20260502015903 14 248 0.0 0.0 0.00 0.00 0.00 74 1013.2
20260502015403 14 248 0.0 0.0 0.00 0.00 0.00 74 1013.2
20260502014402 14 248 0.0 0.0 0.00 0.00 0.00 73 1013.2
20260502013902 14 248 0.0 0.0 0.00 0.00 0.00 73 1013.2
20260502013404 14 248 0.0 0.0 0.00 0.00 0.00 72 1013.2
20260502012903 14 248 0.0 0.0 0.00 0.00 0.00 71 1012.8
20260502012402 14 248 0.0 0.0 0.00 0.00 0.00 71 1012.8
20260502011904 14 248 0.0 0.0 0.00 0.00 0.00 70 1012.8
20260502011402 15 248 0.0 0.0 0.00 0.00 0.00 70 1012.7
20260502010903 15 248 0.0 0.0 0.00 0.00 0.00 69 1012.7
20260502005403 15 248 0.0 0.0 0.00 0.00 0.00 68 1012.4
20260502004904 15 248 0.0 0.0 0.00 0.00 0.00 67 1012.4
20260502004402 15 248 0.0 0.0 0.00 0.00 0.00 67 1012.3
20260502003903 15 248 0.0 0.0 0.00 0.00 0.00 66 1012.3
20260502003404 15 248 0.0 0.0 0.00 0.00 0.00 66 1012.3
20260502002403 16 248 0.0 0.0 0.00 0.00 0.00 64 1012.2
20260502001403 16 248 0.0 0.0 0.00 0.00 0.00 65 1012.1
20260502000903 16 248 0.0 0.0 0.00 0.00 0.00 66 1012.1
20260502000404 16 248 0.0 0.0 0.00 0.00 0.00 64 1012.1
20260501235903 16 248 0.0 0.0 0.00 0.00 0.00 64 1012.1
20260501235402 16 248 0.0 0.0 0.00 0.00 0.00 64 1012.1
20260501234402 16 248 0.0 0.0 0.00 0.00 0.00 67 1012.3
20260501233903 16 248 0.0 0.0 0.00 0.00 0.00 65 1012.3
20260501233404 17 248 0.0 0.0 0.00 0.00 0.00 64 1012.3
20260501232902 17 248 0.0 1.6 0.00 0.00 0.00 64 1012.1
20260501232403 17 248 0.0 1.6 0.00 0.00 0.00 63 1012.1
20260501231903 17 248 0.0 0.0 0.00 0.00 0.00 62 1012.1
20260501231403 17 248 0.0 1.6 0.00 0.00 0.00 63 1012.1
20260501230903 17 248 0.0 0.0 0.00 0.00 0.00 61 1011.9
20260501230404 18 248 0.0 1.6 0.00 0.00 0.00 59 1011.9
20260501225902 18 248 0.0 0.0 0.00 0.00 0.00 55 1011.8
20260501224903 18 248 0.0 1.6 0.00 0.00 0.00 57 1011.8